This is the latest recevied weather packets stored in our database for station/object N8WJW. If no packets are shown the sender has not sent any weather packets the latest 10 day(s).
| Time | Temp. | Humidity | Pressure | Rain* | Wind** | Luminosity | Snow |
|---|---|---|---|---|---|---|---|
| 1777738611 | 4.44° C | 77% | 1018.5 hPa | 0 mm | - | 198 W/m² | - |
| 1777738307 | 3.89° C | 79% | 1018.4 hPa | 0 mm | - | 202 W/m² | - |
| 1777738005 | 4.44° C | 79% | 1018.4 hPa | 0 mm | - | 189 W/m² | - |
| 1777737704 | 4.44° C | 81% | 1018.5 hPa | 0 mm | - | 151 W/m² | - |
| 1777737402 | 3.89° C | 82% | 1018.3 hPa | 0 mm | - | 195 W/m² | - |
| 1777737098 | 3.89° C | 82% | 1018.4 hPa | 0 mm | - | 159 W/m² | - |
| 1777736794 | 3.89° C | 83% | 1018.4 hPa | 0 mm | - | 148 W/m² | - |
| 1777736166 | 3.33° C | 85% | 1018.3 hPa | 0 mm | - | 149 W/m² | - |
| 1777735863 | 3.33° C | 85% | 1018.2 hPa | 0 mm | - | 138 W/m² | - |
| 1777735561 | 3.33° C | 86% | 1018.4 hPa | 0 mm | - | 132 W/m² | - |
| 1777735258 | 3.33° C | 87% | 1018.5 hPa | 0 mm | - | 131 W/m² | - |
| 1777734955 | 3.33° C | 87% | 1018.4 hPa | 0 mm | - | 134 W/m² | - |
| 1777734652 | 3.33° C | 88% | 1018.3 hPa | 0 mm | - | 132 W/m² | - |
| 1777734350 | 2.78° C | 88% | 1018.3 hPa | 0 mm | - | 121 W/m² | - |
| 1777734045 | 2.78° C | 88% | 1018.2 hPa | 0 mm | - | 103 W/m² | - |
| 1777733742 | 2.78° C | 88% | 1018.3 hPa | 0 mm | - | 101 W/m² | - |
| 1777733439 | 2.78° C | 89% | 1018.1 hPa | 0 mm | - | 99 W/m² | - |
| 1777733135 | 2.78° C | 90% | 1018.2 hPa | 0 mm | - | 100 W/m² | - |
| 1777732832 | 2.78° C | 90% | 1018.2 hPa | 0 mm | - | 96 W/m² | - |
| 1777732528 | 2.78° C | 91% | 1017.9 hPa | 0 mm | - | 93 W/m² | - |
| 1777732227 | 2.78° C | 91% | 1018.1 hPa | 0 mm | - | 96 W/m² | - |
| 1777731923 | 2.78° C | 92% | 1018.1 hPa | 0 mm | - | 106 W/m² | - |
| 1777731620 | 2.78° C | 92% | 1018 hPa | 0 mm | - | 84 W/m² | - |
| 1777731318 | 2.78° C | 92% | 1017.9 hPa | 0 mm | - | 64 W/m² | - |
| 1777731015 | 2.78° C | 92% | 1017.8 hPa | 0 mm | - | 95 W/m² | - |
* Rain latest hour (hover to see other rain measurements)
** Current wind speed in m/s (hover to see current wind gust speed)